User: anonymous   Login
Location: ??
(35.5653°N, 139.6194°E)
Time: 16:34:34
(UTC+00:00)
Language:

Cosmos 1437 - Orbit

View from above orbital plane
View from above orbital plane
View from above satellite
View from above satellite

Ground track
Ground track

The orbit data is extracted from the following two-line orbital elements,

1 13770U 83003A   21019.08184691  .00012072  00000-0  10055-3 0  9998
2 13770  81.1572 318.1243 0000883 160.8992 199.2298 15.69935888 90966
Epoch (UTC): 19 January 2021 01:57:51
Eccentricity: 0.0000883
inclination: 81.1572°
perigee height: 358 km
apogee height: 359 km
right ascension of ascending node: 318.1243°
argument of perigee: 160.8992°
revolutions per day: 15.69935888
mean anomaly at epoch: 199.2298°
orbit number at epoch: 9096

The dashed part of the orbit path shows where the satellite is in the earth's shadow,  

DLR